Time,TemperatureF,DewpointF,PressureIn,WindDirection,WindDirectionDegrees,WindSpeedMPH,WindSpeedGustMPH,Humidity,HourlyPrecipIn,Conditions,Clouds,dailyrainin,SoftwareType,DateUTC
2013-01-20 00:00:00,47.8,24.1,29.91,SW,227,8.0,18.0,39,0.00,,,0.00,VWS V14.01,2013-01-20 05:00:00,
2013-01-20 00:01:00,47.8,24.1,29.91,SW,225,12.0,12.0,39,0.00,,,0.00,VWS V14.01,2013-01-20 05:01:00,
2013-01-20 00:04:00,47.8,24.1,29.90,SSW,211,10.0,17.0,39,0.00,,,0.00,VWS V14.01,2013-01-20 05:04:00,
2013-01-20 00:09:00,47.8,24.7,29.90,WSW,240,9.0,17.0,40,0.00,,,0.00,VWS V14.01,2013-01-20 05:09:00,
2013-01-20 00:14:00,47.9,24.8,29.89,SSW,206,8.0,21.0,40,0.00,,,0.00,VWS V14.01,2013-01-20 05:14:00,
2013-01-20 00:19:00,47.9,24.8,29.89,SSE,155,5.0,23.0,40,0.00,,,0.00,VWS V14.01,2013-01-20 05:19:00,
2013-01-20 00:24:00,47.7,25.2,29.90,SW,222,14.0,23.0,41,0.00,,,0.00,VWS V14.01,2013-01-20 05:24:00,
2013-01-20 00:30:00,47.7,25.2,29.89,SSW,205,15.0,23.0,41,0.00,,,0.00,VWS V14.01,2013-01-20 05:30:00,
2013-01-20 00:35:00,47.6,25.1,29.89,South,184,8.0,11.0,41,0.00,,,0.00,VWS V14.01,2013-01-20 05:35:00,
2013-01-20 00:40:00,47.4,24.9,29.89,SW,232,13.0,19.0,41,0.00,,,0.00,VWS V14.01,2013-01-20 05:40:00,
2013-01-20 00:45:00,47.5,25.0,29.89,SSE,164,10.0,20.0,41,0.00,,,0.00,VWS V14.01,2013-01-20 05:45:00,
2013-01-20 00:50:00,47.4,25.5,29.89,SSW,208,10.0,20.0,42,0.00,,,0.00,VWS V14.01,2013-01-20 05:50:00,
2013-01-20 00:55:00,47.4,25.5,29.89,SSW,205,6.0,20.0,42,0.00,,,0.00,VWS V14.01,2013-01-20 05:55:00,
2013-01-20 01:00:00,47.3,26.0,29.89,SSW,211,8.0,20.0,43,0.00,,,0.00,VWS V14.01,2013-01-20 06:00:00,
2013-01-20 01:05:00,47.0,25.7,29.89,SW,219,4.0,15.0,43,0.00,,,0.00,VWS V14.01,2013-01-20 06:05:00,
2013-01-20 01:10:00,47.0,25.7,29.89,SSW,207,7.0,17.0,43,0.00,,,0.00,VWS V14.01,2013-01-20 06:10:00,
2013-01-20 01:15:00,46.9,25.6,29.89,SW,221,6.0,17.0,43,0.00,,,0.00,VWS V14.01,2013-01-20 06:15:00,
2013-01-20 01:20:00,46.9,26.1,29.89,SW,221,5.0,21.0,44,0.00,,,0.00,VWS V14.01,2013-01-20 06:20:00,
2013-01-20 01:25:00,46.8,26.0,29.88,WSW,240,12.0,22.0,44,0.00,,,0.00,VWS V14.01,2013-01-20 06:25:00,
2013-01-20 01:30:00,46.7,26.0,29.89,SSW,205,7.0,9.0,44,0.00,,,0.00,VWS V14.01,2013-01-20 06:30:00,
2013-01-20 01:35:00,46.7,26.0,29.89,SW,215,7.0,17.0,44,0.00,,,0.00,VWS V14.01,2013-01-20 06:35:00,
2013-01-20 01:40:00,46.6,26.4,29.88,South,185,6.0,17.0,45,0.00,,,0.00,VWS V14.01,2013-01-20 06:40:00,
2013-01-20 01:45:00,46.4,26.2,29.88,SW,225,9.0,17.0,45,0.00,,,0.00,VWS V14.01,2013-01-20 06:45:00,
2013-01-20 01:50:00,46.5,26.3,29.88,SSW,196,10.0,18.0,45,0.00,,,0.00,VWS V14.01,2013-01-20 06:50:00,
2013-01-20 01:55:00,46.4,26.2,29.88,SSW,209,6.0,20.0,45,0.00,,,0.00,VWS V14.01,2013-01-20 06:55:00,
2013-01-20 02:00:00,46.3,26.7,29.88,WSW,253,6.0,12.0,46,0.00,,,0.00,VWS V14.01,2013-01-20 07:00:00,
2013-01-20 02:05:00,46.3,26.7,29.88,SW,221,5.0,17.0,46,0.00,,,0.00,VWS V14.01,2013-01-20 07:05:00,
2013-01-20 02:10:00,46.2,27.1,29.88,WSW,238,11.0,17.0,47,0.00,,,0.00,VWS V14.01,2013-01-20 07:10:00,
2013-01-20 02:15:00,46.4,27.3,29.88,SW,222,21.0,21.0,47,0.00,,,0.00,VWS V14.01,2013-01-20 07:15:00,
2013-01-20 02:20:00,46.5,27.4,29.88,SSE,168,11.0,21.0,47,0.00,,,0.00,VWS V14.01,2013-01-20 07:20:00,
2013-01-20 02:26:00,46.6,27.5,29.88,SSW,209,11.0,21.0,47,0.00,,,0.00,VWS V14.01,2013-01-20 07:26:00,
2013-01-20 02:31:00,46.3,27.2,29.88,SW,214,8.0,14.0,47,0.00,,,0.00,VWS V14.01,2013-01-20 07:31:00,
2013-01-20 02:36:00,46.3,27.7,29.87,SSW,193,8.0,18.0,48,0.00,,,0.00,VWS V14.01,2013-01-20 07:36:00,
2013-01-20 02:41:00,46.2,27.6,29.87,SW,223,13.0,18.0,48,0.00,,,0.00,VWS V14.01,2013-01-20 07:41:00,
2013-01-20 02:46:00,46.1,27.5,29.88,SW,236,11.0,18.0,48,0.00,,,0.00,VWS V14.01,2013-01-20 07:46:00,
2013-01-20 02:51:00,46.0,27.9,29.87,SW,219,7.0,18.0,49,0.00,,,0.00,VWS V14.01,2013-01-20 07:51:00,
2013-01-20 02:56:00,45.9,27.8,29.87,South,175,6.0,18.0,49,0.00,,,0.00,VWS V14.01,2013-01-20 07:56:00,
2013-01-20 03:01:00,45.8,28.2,29.88,SSW,209,7.0,13.0,50,0.00,,,0.00,VWS V14.01,2013-01-20 08:01:00,
2013-01-20 03:06:00,45.7,28.1,29.87,SW,217,7.0,16.0,50,0.00,,,0.00,VWS V14.01,2013-01-20 08:06:00,
2013-01-20 03:11:00,45.7,28.1,29.86,SW,215,14.0,17.0,50,0.00,,,0.00,VWS V14.01,2013-01-20 08:11:00,
2013-01-20 03:17:00,45.6,28.0,29.86,SW,214,11.0,19.0,50,0.00,,,0.00,VWS V14.01,2013-01-20 08:17:00,
2013-01-20 03:22:00,45.6,28.5,29.86,SW,236,8.0,19.0,51,0.00,,,0.00,VWS V14.01,2013-01-20 08:22:00,
2013-01-20 03:27:00,45.5,28.4,29.86,South,187,15.0,19.0,51,0.00,,,0.00,VWS V14.01,2013-01-20 08:27:00,
2013-01-20 03:32:00,45.5,28.4,29.86,West,277,8.0,14.0,51,0.00,,,0.00,VWS V14.01,2013-01-20 08:32:00,
2013-01-20 03:37:00,45.3,28.7,29.86,SW,215,9.0,18.0,52,0.00,,,0.00,VWS V14.01,2013-01-20 08:37:00,
2013-01-20 03:42:00,45.1,29.0,29.86,SW,231,6.0,18.0,53,0.00,,,0.00,VWS V14.01,2013-01-20 08:42:00,
2013-01-20 03:47:00,45.1,28.5,29.85,South,180,11.0,21.0,52,0.00,,,0.00,VWS V14.01,2013-01-20 08:47:00,
2013-01-20 03:52:00,45.2,29.1,29.85,SW,225,9.0,21.0,53,0.00,,,0.00,VWS V14.01,2013-01-20 08:52:00,
2013-01-20 03:58:00,45.1,29.0,29.86,SSW,194,11.0,21.0,53,0.00,,,0.00,VWS V14.01,2013-01-20 08:58:00,
2013-01-20 04:03:00,45.2,29.1,29.85,SSW,195,7.0,18.0,53,0.00,,,0.00,VWS V14.01,2013-01-20 09:03:00,
2013-01-20 04:08:00,45.1,29.0,29.86,SSW,210,16.0,18.0,53,0.00,,,0.00,VWS V14.01,2013-01-20 09:08:00,
2013-01-20 04:13:00,44.9,29.3,29.86,SSW,203,15.0,19.0,54,0.00,,,0.00,VWS V14.01,2013-01-20 09:13:00,
2013-01-20 04:18:00,44.8,29.2,29.86,SW,227,12.0,19.0,54,0.00,,,0.00,VWS V14.01,2013-01-20 09:18:00,
2013-01-20 04:23:00,44.9,29.3,29.85,SSE,158,11.0,21.0,54,0.00,,,0.00,VWS V14.01,2013-01-20 09:23:00,
2013-01-20 04:28:00,44.8,29.2,29.85,SSW,205,8.0,21.0,54,0.00,,,0.00,VWS V14.01,2013-01-20 09:28:00,
2013-01-20 04:33:00,44.6,29.5,29.85,South,172,8.0,11.0,55,0.00,,,0.00,VWS V14.01,2013-01-20 09:33:00,
2013-01-20 04:38:00,44.7,29.5,29.85,WSW,241,10.0,21.0,55,0.00,,,0.00,VWS V14.01,2013-01-20 09:38:00,
2013-01-20 04:43:00,44.8,29.6,29.85,South,175,10.0,21.0,55,0.00,,,0.00,VWS V14.01,2013-01-20 09:43:00,
2013-01-20 04:48:00,44.5,29.4,29.85,SW,219,14.0,21.0,55,0.00,,,0.00,VWS V14.01,2013-01-20 09:48:00,
2013-01-20 04:53:00,44.4,29.7,29.84,SW,221,9.0,21.0,56,0.00,,,0.00,VWS V14.01,2013-01-20 09:53:00,
2013-01-20 04:58:00,44.3,29.6,29.85,South,184,9.0,21.0,56,0.00,,,0.00,VWS V14.01,2013-01-20 09:58:00,
2013-01-20 05:03:00,44.3,30.0,29.85,SW,230,12.0,18.0,57,0.00,,,0.00,VWS V14.01,2013-01-20 10:03:00,
2013-01-20 05:08:00,44.4,29.7,29.85,SSW,209,9.0,22.0,56,0.00,,,0.00,VWS V14.01,2013-01-20 10:08:00,
2013-01-20 05:13:00,44.2,30.0,29.85,SSW,209,7.0,22.0,57,0.00,,,0.00,VWS V14.01,2013-01-20 10:13:00,
2013-01-20 05:19:00,44.2,30.0,29.85,SW,221,7.0,22.0,57,0.00,,,0.00,VWS V14.01,2013-01-20 10:19:00,
2013-01-20 05:24:00,44.1,30.3,29.86,SW,231,4.0,22.0,58,0.00,,,0.00,VWS V14.01,2013-01-20 10:24:00,
2013-01-20 05:29:00,44.1,30.3,29.85,SSW,207,10.0,22.0,58,0.00,,,0.00,VWS V14.01,2013-01-20 10:29:00,
2013-01-20 05:34:00,44.2,30.0,29.85,SSW,207,8.0,15.0,57,0.00,,,0.00,VWS V14.01,2013-01-20 10:34:00,
2013-01-20 05:39:00,44.2,30.4,29.86,SSW,202,6.0,18.0,58,0.00,,,0.00,VWS V14.01,2013-01-20 10:39:00,
2013-01-20 05:44:00,44.2,30.8,29.86,WSW,237,6.0,18.0,59,0.00,,,0.00,VWS V14.01,2013-01-20 10:44:00,
2013-01-20 05:49:00,44.2,30.8,29.86,SW,219,5.0,18.0,59,0.00,,,0.00,VWS V14.01,2013-01-20 10:49:00,
2013-01-20 05:54:00,44.3,30.9,29.86,WSW,240,10.0,18.0,59,0.00,,,0.00,VWS V14.01,2013-01-20 10:54:00,
2013-01-20 05:59:00,44.6,30.8,29.86,SW,224,10.0,23.0,58,0.00,,,0.00,VWS V14.01,2013-01-20 10:59:00,
2013-01-20 06:04:00,44.7,30.9,29.87,SW,236,6.0,13.0,58,0.00,,,0.00,VWS V14.01,2013-01-20 11:04:00,
2013-01-20 06:09:00,44.6,31.2,29.87,WSW,255,8.0,14.0,59,0.00,,,0.00,VWS V14.01,2013-01-20 11:09:00,
2013-01-20 06:14:00,44.5,31.1,29.86,SSW,209,7.0,14.0,59,0.00,,,0.00,VWS V14.01,2013-01-20 11:14:00,
2013-01-20 06:19:00,44.6,31.2,29.87,SW,220,10.0,17.0,59,0.00,,,0.00,VWS V14.01,2013-01-20 11:19:00,
2013-01-20 06:24:00,44.6,31.2,29.87,SW,236,5.0,17.0,59,0.00,,,0.00,VWS V14.01,2013-01-20 11:24:00,
2013-01-20 06:29:00,44.5,31.1,29.87,SW,231,11.0,17.0,59,0.00,,,0.00,VWS V14.01,2013-01-20 11:29:00,
2013-01-20 06:34:00,44.5,31.5,29.87,SW,225,9.0,12.0,60,0.00,,,0.00,VWS V14.01,2013-01-20 11:34:00,
2013-01-20 06:39:00,44.6,31.2,29.87,WSW,237,9.0,19.0,59,0.00,,,0.00,VWS V14.01,2013-01-20 11:39:00,
2013-01-20 06:44:00,44.7,31.3,29.88,SW,224,4.0,19.0,59,0.00,,,0.00,VWS V14.01,2013-01-20 11:44:00,
2013-01-20 06:50:00,44.7,31.3,29.88,SW,225,10.0,19.0,59,0.00,,,0.00,VWS V14.01,2013-01-20 11:50:00,
2013-01-20 06:55:00,44.5,31.5,29.88,South,184,4.0,19.0,60,0.00,,,0.00,VWS V14.01,2013-01-20 11:55:00,
2013-01-20 07:00:00,44.2,31.6,29.88,SW,221,11.0,19.0,61,0.00,,,0.00,VWS V14.01,2013-01-20 12:00:00,
2013-01-20 07:05:00,44.2,31.6,29.88,SW,231,9.0,17.0,61,0.00,,,0.00,VWS V14.01,2013-01-20 12:05:00,
2013-01-20 07:10:00,44.2,31.6,29.88,SSW,199,14.0,19.0,61,0.00,,,0.00,VWS V14.01,2013-01-20 12:10:00,
2013-01-20 07:15:00,44.2,31.6,29.89,WSW,238,9.0,19.0,61,0.00,,,0.00,VWS V14.01,2013-01-20 12:15:00,
2013-01-20 07:20:00,44.1,31.5,29.89,SSW,211,9.0,19.0,61,0.00,,,0.00,VWS V14.01,2013-01-20 12:20:00,
2013-01-20 07:25:00,44.2,31.6,29.88,South,173,6.0,19.0,61,0.00,,,0.00,VWS V14.01,2013-01-20 12:25:00,
2013-01-20 07:30:00,44.1,31.5,29.89,SW,230,4.0,5.0,61,0.00,,,0.00,VWS V14.01,2013-01-20 12:30:00,
2013-01-20 07:35:00,44.1,31.9,29.89,SSW,201,6.0,21.0,62,0.00,,,0.00,VWS V14.01,2013-01-20 12:35:00,
2013-01-20 07:40:00,44.1,31.5,29.89,South,182,6.0,21.0,61,0.00,,,0.00,VWS V14.01,2013-01-20 12:40:00,
2013-01-20 07:45:00,44.1,31.5,29.89,SSW,196,6.0,21.0,61,0.00,,,0.00,VWS V14.01,2013-01-20 12:45:00,
2013-01-20 07:50:00,44.1,31.5,29.90,SW,221,11.0,30.0,61,0.00,,,0.00,VWS V14.01,2013-01-20 12:50:00,
2013-01-20 07:55:00,43.9,31.3,29.90,WSW,247,8.0,30.0,61,0.00,,,0.00,VWS V14.01,2013-01-20 12:55:00,
2013-01-20 08:00:00,43.7,30.7,29.89,SW,230,10.0,13.0,60,0.00,,,0.00,VWS V14.01,2013-01-20 13:00:00,
2013-01-20 08:05:00,43.7,30.7,29.91,SW,225,6.0,17.0,60,0.00,,,0.00,VWS V14.01,2013-01-20 13:05:00,
2013-01-20 08:10:00,43.7,31.1,29.91,WSW,237,8.0,17.0,61,0.00,,,0.00,VWS V14.01,2013-01-20 13:10:00,
2013-01-20 08:15:00,43.7,31.1,29.91,West,264,8.0,17.0,61,0.00,,,0.00,VWS V14.01,2013-01-20 13:15:00,
2013-01-20 08:20:00,43.5,31.0,29.91,SW,229,6.0,17.0,61,0.00,,,0.00,VWS V14.01,2013-01-20 13:20:00,
2013-01-20 08:25:00,43.3,30.8,29.92,WSW,238,5.0,17.0,61,0.00,,,0.00,VWS V14.01,2013-01-20 13:25:00,
2013-01-20 08:30:00,43.4,30.9,29.92,SSW,198,4.0,6.0,61,0.00,,,0.00,VWS V14.01,2013-01-20 13:30:00,
2013-01-20 08:35:00,43.2,30.3,29.92,WSW,244,13.0,13.0,60,0.00,,,0.00,VWS V14.01,2013-01-20 13:35:00,
2013-01-20 08:40:00,43.1,29.8,29.92,WSW,251,8.0,13.0,59,0.00,,,0.00,VWS V14.01,2013-01-20 13:40:00,
2013-01-20 08:46:00,43.0,29.7,29.93,SW,230,8.0,17.0,59,0.00,,,0.00,VWS V14.01,2013-01-20 13:46:00,
2013-01-20 08:51:00,42.9,28.3,29.93,SW,231,10.0,17.0,56,0.00,,,0.00,VWS V14.01,2013-01-20 13:51:00,
2013-01-20 08:56:00,42.8,27.3,29.93,SW,225,6.0,17.0,54,0.00,,,0.00,VWS V14.01,2013-01-20 13:56:00,
2013-01-20 09:01:00,42.6,26.2,29.94,WSW,239,7.0,12.0,52,0.00,,,0.00,VWS V14.01,2013-01-20 14:01:00,
2013-01-20 09:06:00,42.3,25.0,29.94,WSW,248,9.0,14.0,50,0.00,,,0.00,VWS V14.01,2013-01-20 14:06:00,
2013-01-20 09:11:00,42.3,24.0,29.95,South,185,4.0,14.0,48,0.00,,,0.00,VWS V14.01,2013-01-20 14:11:00,
2013-01-20 09:16:00,42.7,24.4,29.95,South,182,7.0,14.0,48,0.00,,,0.00,VWS V14.01,2013-01-20 14:16:00,
2013-01-20 09:21:00,43.0,24.7,29.96,WSW,247,9.0,14.0,48,0.00,,,0.00,VWS V14.01,2013-01-20 14:21:00,
2013-01-20 09:26:00,43.2,21.1,29.96,SSW,213,7.0,14.0,41,0.00,,,0.00,VWS V14.01,2013-01-20 14:26:00,
2013-01-20 09:31:00,42.9,20.8,29.97,WSW,238,2.0,11.0,41,0.00,,,0.00,VWS V14.01,2013-01-20 14:31:00,
2013-01-20 09:36:00,42.9,24.1,29.98,SSW,207,4.0,11.0,47,0.00,,,0.00,VWS V14.01,2013-01-20 14:36:00,
2013-01-20 09:41:00,42.6,22.8,29.98,WSW,246,8.0,11.0,45,0.00,,,0.00,VWS V14.01,2013-01-20 14:41:00,
2013-01-20 09:46:00,42.4,22.0,29.98,WSW,237,9.0,12.0,44,0.00,,,0.00,VWS V14.01,2013-01-20 14:46:00,
2013-01-20 09:52:00,42.3,22.5,29.98,West,272,8.0,13.0,45,0.00,,,0.00,VWS V14.01,2013-01-20 14:52:00,
2013-01-20 09:57:00,41.6,21.3,29.99,WNW,285,2.0,18.0,44,0.00,,,0.00,VWS V14.01,2013-01-20 14:57:00,
2013-01-20 10:02:00,41.4,21.1,29.99,WSW,238,4.0,10.0,44,0.00,,,0.00,VWS V14.01,2013-01-20 15:02:00,
2013-01-20 10:07:00,41.3,20.5,29.99,SW,221,4.0,12.0,43,0.00,,,0.00,VWS V14.01,2013-01-20 15:07:00,
2013-01-20 10:12:00,41.3,21.6,30.00,West,263,8.0,17.0,45,0.00,,,0.00,VWS V14.01,2013-01-20 15:12:00,
2013-01-20 10:17:00,41.0,21.8,30.00,SW,236,6.0,18.0,46,0.00,,,0.00,VWS V14.01,2013-01-20 15:17:00,
2013-01-20 10:22:00,40.9,21.2,30.00,SW,228,6.0,18.0,45,0.00,,,0.00,VWS V14.01,2013-01-20 15:22:00,
2013-01-20 10:27:00,40.9,21.7,30.01,SSW,201,5.0,18.0,46,0.00,,,0.00,VWS V14.01,2013-01-20 15:27:00,
2013-01-20 10:32:00,40.9,21.7,30.01,SW,232,9.0,11.0,46,0.00,,,0.00,VWS V14.01,2013-01-20 15:32:00,
2013-01-20 10:37:00,41.0,22.3,30.01,SW,223,5.0,13.0,47,0.00,,,0.00,VWS V14.01,2013-01-20 15:37:00,
2013-01-20 10:42:00,41.0,20.8,30.01,WSW,238,7.0,20.0,44,0.00,,,0.00,VWS V14.01,2013-01-20 15:42:00,
2013-01-20 10:47:00,40.7,21.5,30.01,SW,235,9.0,20.0,46,0.00,,,0.00,VWS V14.01,2013-01-20 15:47:00,
2013-01-20 10:52:00,40.8,21.1,30.02,SW,219,15.0,21.0,45,0.00,,,0.00,VWS V14.01,2013-01-20 15:52:00,
2013-01-20 10:57:00,40.8,21.1,30.02,SW,229,7.0,21.0,45,0.00,,,0.00,VWS V14.01,2013-01-20 15:57:00,
2013-01-20 11:02:00,40.9,20.7,30.02,SW,221,13.0,14.0,44,0.00,,,0.00,VWS V14.01,2013-01-20 16:02:00,
2013-01-20 11:07:00,40.2,21.6,30.03,WNW,298,9.0,20.0,47,0.00,,,0.00,VWS V14.01,2013-01-20 16:07:00,
2013-01-20 11:12:00,39.6,21.0,30.03,WNW,302,8.0,20.0,47,0.00,,,0.00,VWS V14.01,2013-01-20 16:12:00,
2013-01-20 11:17:00,39.5,21.5,30.03,WNW,293,7.0,20.0,48,0.00,,,0.00,VWS V14.01,2013-01-20 16:17:00,
2013-01-20 11:22:00,39.5,20.5,30.03,WNW,284,16.0,22.0,46,0.00,,,0.00,VWS V14.01,2013-01-20 16:22:00,
2013-01-20 11:28:00,39.0,19.5,30.03,WNW,296,10.0,22.0,45,0.00,,,0.00,VWS V14.01,2013-01-20 16:28:00,
2013-01-20 11:33:00,39.5,20.5,30.02,WNW,297,2.0,14.0,46,0.00,,,0.00,VWS V14.01,2013-01-20 16:33:00,
2013-01-20 11:38:00,39.6,18.4,30.03,WSW,238,3.0,15.0,42,0.00,,,0.00,VWS V14.01,2013-01-20 16:38:00,
2013-01-20 11:43:00,39.4,17.7,30.03,West,261,16.0,16.0,41,0.00,,,0.00,VWS V14.01,2013-01-20 16:43:00,
2013-01-20 11:48:00,39.4,18.2,30.03,SSW,207,6.0,16.0,42,0.00,,,0.00,VWS V14.01,2013-01-20 16:48:00,
2013-01-20 11:53:00,39.5,17.2,30.03,SW,234,13.0,16.0,40,0.00,,,0.00,VWS V14.01,2013-01-20 16:53:00,
2013-01-20 11:58:00,39.2,18.0,30.03,SW,236,3.0,16.0,42,0.00,,,0.00,VWS V14.01,2013-01-20 16:58:00,
2013-01-20 12:03:00,39.2,17.5,30.04,WSW,240,6.0,10.0,41,0.00,,,0.00,VWS V14.01,2013-01-20 17:03:00,
2013-01-20 12:08:00,38.8,16.6,30.04,West,280,4.0,14.0,40,0.00,,,0.00,VWS V14.01,2013-01-20 17:08:00,
2013-01-20 12:13:00,38.3,16.7,30.03,West,273,7.0,19.0,41,0.00,,,0.00,VWS V14.01,2013-01-20 17:13:00,
2013-01-20 12:18:00,38.1,15.9,30.03,WNW,291,9.0,19.0,40,0.00,,,0.00,VWS V14.01,2013-01-20 17:18:00,
2013-01-20 12:23:00,38.0,16.4,30.03,WSW,257,5.0,19.0,41,0.00,,,0.00,VWS V14.01,2013-01-20 17:23:00,
2013-01-20 12:28:00,38.2,17.1,30.03,WSW,254,4.0,19.0,42,0.00,,,0.00,VWS V14.01,2013-01-20 17:28:00,
2013-01-20 12:33:00,38.0,17.0,30.03,West,270,4.0,15.0,42,0.00,,,0.00,VWS V14.01,2013-01-20 17:33:00,
2013-01-20 12:38:00,38.1,17.0,30.03,SW,232,9.0,15.0,42,0.00,,,0.00,VWS V14.01,2013-01-20 17:38:00,
2013-01-20 12:43:00,38.2,17.7,30.04,WNW,296,8.0,15.0,43,0.00,,,0.00,VWS V14.01,2013-01-20 17:43:00,
2013-01-20 12:48:00,38.0,17.5,30.04,WSW,255,9.0,15.0,43,0.00,,,0.00,VWS V14.01,2013-01-20 17:48:00,
2013-01-20 12:53:00,38.2,18.2,30.03,NW,321,5.0,15.0,44,0.00,,,0.00,VWS V14.01,2013-01-20 17:53:00,
2013-01-20 12:58:00,38.4,17.9,30.04,West,279,5.0,20.0,43,0.00,,,0.00,VWS V14.01,2013-01-20 17:58:00,
2013-01-20 13:03:00,38.0,18.6,30.04,SW,236,3.0,15.0,45,0.00,,,0.00,VWS V14.01,2013-01-20 18:03:00,
2013-01-20 13:08:00,37.9,18.0,30.04,West,270,14.0,20.0,44,0.00,,,0.00,VWS V14.01,2013-01-20 18:08:00,
2013-01-20 13:13:00,37.2,18.3,30.04,WSW,244,1.0,20.0,46,0.00,,,0.00,VWS V14.01,2013-01-20 18:13:00,
2013-01-20 13:18:00,37.7,17.8,30.04,SW,227,9.0,20.0,44,0.00,,,0.00,VWS V14.01,2013-01-20 18:18:00,
2013-01-20 13:23:00,37.8,18.4,30.04,SW,227,5.0,20.0,45,0.00,,,0.00,VWS V14.01,2013-01-20 18:23:00,
2013-01-20 13:28:00,38.0,18.0,30.04,West,263,3.0,20.0,44,0.00,,,0.00,VWS V14.01,2013-01-20 18:28:00,
2013-01-20 13:33:00,38.1,18.6,30.04,WNW,295,8.0,8.0,45,0.00,,,0.00,VWS V14.01,2013-01-20 18:33:00,
2013-01-20 13:38:00,37.8,16.8,30.04,NW,306,7.0,18.0,42,0.00,,,0.00,VWS V14.01,2013-01-20 18:38:00,
2013-01-20 13:43:00,37.5,17.0,30.05,WNW,298,9.0,21.0,43,0.00,,,0.00,VWS V14.01,2013-01-20 18:43:00,
2013-01-20 13:48:00,37.3,16.3,30.05,West,277,8.0,21.0,42,0.00,,,0.00,VWS V14.01,2013-01-20 18:48:00,
2013-01-20 13:53:00,37.5,16.5,30.05,WNW,295,7.0,21.0,42,0.00,,,0.00,VWS V14.01,2013-01-20 18:53:00,
2013-01-20 13:58:00,37.0,15.5,30.05,NW,305,10.0,21.0,41,0.00,,,0.00,VWS V14.01,2013-01-20 18:58:00,
2013-01-20 14:03:00,36.5,16.1,30.06,WNW,296,4.0,20.0,43,0.00,,,0.00,VWS V14.01,2013-01-20 19:03:00,
2013-01-20 14:08:00,36.7,16.9,30.06,WSW,257,5.0,20.0,44,0.00,,,0.00,VWS V14.01,2013-01-20 19:08:00,
2013-01-20 14:13:00,37.2,17.8,30.06,West,279,7.0,20.0,45,0.00,,,0.00,VWS V14.01,2013-01-20 19:13:00,
2013-01-20 14:19:00,37.3,16.9,30.06,WNW,302,12.0,20.0,43,0.00,,,0.00,VWS V14.01,2013-01-20 19:19:00,
2013-01-20 14:24:00,36.6,15.7,30.06,West,263,6.0,20.0,42,0.00,,,0.00,VWS V14.01,2013-01-20 19:24:00,
2013-01-20 14:29:00,36.7,16.9,30.07,WNW,303,15.0,20.0,44,0.00,,,0.00,VWS V14.01,2013-01-20 19:29:00,
2013-01-20 14:34:00,36.4,15.5,30.07,WNW,286,13.0,18.0,42,0.00,,,0.00,VWS V14.01,2013-01-20 19:34:00,
2013-01-20 14:39:00,36.2,16.4,30.07,West,280,10.0,18.0,44,0.00,,,0.00,VWS V14.01,2013-01-20 19:39:00,
2013-01-20 14:44:00,36.5,14.5,30.07,West,269,10.0,18.0,40,0.00,,,0.00,VWS V14.01,2013-01-20 19:44:00,
2013-01-20 14:49:00,36.4,13.8,30.07,West,270,8.0,18.0,39,0.00,,,0.00,VWS V14.01,2013-01-20 19:49:00,
2013-01-20 14:54:00,36.4,14.4,30.07,SSE,158,3.0,18.0,40,0.00,,,0.00,VWS V14.01,2013-01-20 19:54:00,
2013-01-20 14:59:00,36.2,13.1,30.08,WSW,239,5.0,18.0,38,0.00,,,0.00,VWS V14.01,2013-01-20 19:59:00,
2013-01-20 15:04:00,35.9,13.4,30.07,West,271,6.0,16.0,39,0.00,,,0.00,VWS V14.01,2013-01-20 20:04:00,
2013-01-20 15:09:00,35.5,13.6,30.07,NNW,327,7.0,17.0,40,0.00,,,0.00,VWS V14.01,2013-01-20 20:09:00,
2013-01-20 15:14:00,35.2,13.3,30.07,WNW,284,12.0,17.0,40,0.00,,,0.00,VWS V14.01,2013-01-20 20:14:00,
2013-01-20 15:19:00,35.3,14.5,30.08,West,279,0.0,17.0,42,0.00,,,0.00,VWS V14.01,2013-01-20 20:19:00,
2013-01-20 15:24:00,35.8,14.4,30.08,WNW,291,7.0,17.0,41,0.00,,,0.00,VWS V14.01,2013-01-20 20:24:00,
2013-01-20 15:29:00,35.6,14.8,30.08,WSW,255,4.0,17.0,42,0.00,,,0.00,VWS V14.01,2013-01-20 20:29:00,
2013-01-20 15:34:00,35.4,14.6,30.08,NNW,346,3.0,12.0,42,0.00,,,0.00,VWS V14.01,2013-01-20 20:34:00,
2013-01-20 15:39:00,35.2,14.4,30.08,West,259,4.0,16.0,42,0.00,,,0.00,VWS V14.01,2013-01-20 20:39:00,
2013-01-20 15:44:00,35.1,14.9,30.08,WNW,296,4.0,16.0,43,0.00,,,0.00,VWS V14.01,2013-01-20 20:44:00,
2013-01-20 15:49:00,35.2,14.4,30.08,WNW,297,7.0,16.0,42,0.00,,,0.00,VWS V14.01,2013-01-20 20:49:00,
2013-01-20 15:55:00,35.1,14.9,30.08,WSW,248,3.0,16.0,43,0.00,,,0.00,VWS V14.01,2013-01-20 20:55:00,
2013-01-20 16:00:00,35.2,14.4,30.08,WNW,283,4.0,4.0,42,0.00,,,0.00,VWS V14.01,2013-01-20 21:00:00,
2013-01-20 16:05:00,35.5,15.2,30.08,West,263,4.0,10.0,43,0.00,,,0.00,VWS V14.01,2013-01-20 21:05:00,
2013-01-20 16:10:00,35.8,15.5,30.08,West,265,3.0,10.0,43,0.00,,,0.00,VWS V14.01,2013-01-20 21:10:00,
2013-01-20 16:15:00,35.8,15.0,30.08,WNW,293,5.0,10.0,42,0.00,,,0.00,VWS V14.01,2013-01-20 21:15:00,
2013-01-20 16:20:00,35.7,15.4,30.08,WSW,249,3.0,10.0,43,0.00,,,0.00,VWS V14.01,2013-01-20 21:20:00,
2013-01-20 16:25:00,35.3,15.1,30.08,West,264,2.0,10.0,43,0.00,,,0.00,VWS V14.01,2013-01-20 21:25:00,
2013-01-20 16:30:00,35.0,14.8,30.08,SW,228,4.0,5.0,43,0.00,,,0.00,VWS V14.01,2013-01-20 21:30:00,
2013-01-20 16:35:00,34.6,15.5,30.08,West,259,3.0,12.0,45,0.00,,,0.00,VWS V14.01,2013-01-20 21:35:00,
2013-01-20 16:41:00,34.7,15.0,30.09,WSW,238,4.0,12.0,44,0.00,,,0.00,VWS V14.01,2013-01-20 21:41:00,
2013-01-20 16:46:00,34.6,14.4,30.09,WSW,255,5.0,12.0,43,0.00,,,0.00,VWS V14.01,2013-01-20 21:46:00,
2013-01-20 16:51:00,34.4,13.7,30.09,SW,225,1.0,12.0,42,0.00,,,0.00,VWS V14.01,2013-01-20 21:51:00,
2013-01-20 16:56:00,34.2,14.1,30.10,WSW,242,0.0,12.0,43,0.00,,,0.00,VWS V14.01,2013-01-20 21:56:00,
2013-01-20 17:01:00,33.9,14.3,30.10,WNW,292,2.0,5.0,44,0.00,,,0.00,VWS V14.01,2013-01-20 22:01:00,
2013-01-20 17:06:00,33.6,14.0,30.10,West,265,3.0,9.0,44,0.00,,,0.00,VWS V14.01,2013-01-20 22:06:00,
2013-01-20 17:11:00,33.4,13.9,30.09,West,272,4.0,9.0,44,0.00,,,0.00,VWS V14.01,2013-01-20 22:11:00,
2013-01-20 17:16:00,33.0,13.5,30.09,WNW,298,2.0,9.0,44,0.00,,,0.00,VWS V14.01,2013-01-20 22:16:00,
2013-01-20 17:21:00,32.8,13.8,30.09,West,275,1.0,9.0,45,0.00,,,0.00,VWS V14.01,2013-01-20 22:21:00,
2013-01-20 17:26:00,32.5,13.5,30.09,West,261,1.0,9.0,45,0.00,,,0.00,VWS V14.01,2013-01-20 22:26:00,
2013-01-20 17:32:00,32.3,13.9,30.10,WNW,287,1.0,5.0,46,0.00,,,0.00,VWS V14.01,2013-01-20 22:32:00,
2013-01-20 17:37:00,32.0,13.6,30.11,West,279,4.0,5.0,46,0.00,,,0.00,VWS V14.01,2013-01-20 22:37:00,
2013-01-20 17:42:00,31.8,13.9,30.11,WSW,238,7.0,12.0,47,0.00,,,0.00,VWS V14.01,2013-01-20 22:42:00,
2013-01-20 17:47:00,31.7,13.8,30.12,WNW,284,2.0,12.0,47,0.00,,,0.00,VWS V14.01,2013-01-20 22:47:00,
2013-01-20 17:52:00,31.7,13.8,30.12,WNW,296,4.0,12.0,47,0.00,,,0.00,VWS V14.01,2013-01-20 22:52:00,
2013-01-20 17:57:00,31.5,14.1,30.12,West,276,3.0,12.0,48,0.00,,,0.00,VWS V14.01,2013-01-20 22:57:00,
2013-01-20 18:02:00,31.3,14.4,30.12,WSW,249,2.0,4.0,49,0.00,,,0.00,VWS V14.01,2013-01-20 23:02:00,
2013-01-20 18:07:00,31.1,14.2,30.12,WNW,282,4.0,6.0,49,0.00,,,0.00,VWS V14.01,2013-01-20 23:07:00,
2013-01-20 18:12:00,31.1,14.6,30.13,West,279,0.0,7.0,50,0.00,,,0.00,VWS V14.01,2013-01-20 23:12:00,
2013-01-20 18:18:00,30.9,14.5,30.13,SW,236,1.0,7.0,50,0.00,,,0.00,VWS V14.01,2013-01-20 23:18:00,
2013-01-20 18:23:00,30.8,14.4,30.13,West,278,2.0,7.0,50,0.00,,,0.00,VWS V14.01,2013-01-20 23:23:00,
2013-01-20 18:28:00,30.7,14.7,30.13,WNW,298,1.0,7.0,51,0.00,,,0.00,VWS V14.01,2013-01-20 23:28:00,
2013-01-20 18:33:00,30.5,14.5,30.13,WNW,292,5.0,8.0,51,0.00,,,0.00,VWS V14.01,2013-01-20 23:33:00,
2013-01-20 18:38:00,30.4,14.9,30.14,NW,306,3.0,8.0,52,0.00,,,0.00,VWS V14.01,2013-01-20 23:38:00,
2013-01-20 18:43:00,30.2,14.7,30.14,WNW,300,5.0,8.0,52,0.00,,,0.00,VWS V14.01,2013-01-20 23:43:00,
2013-01-20 18:48:00,30.1,15.1,30.14,WNW,282,0.0,8.0,53,0.00,,,0.00,VWS V14.01,2013-01-20 23:48:00,
2013-01-20 18:53:00,29.9,14.9,30.14,WNW,289,3.0,8.0,53,0.00,,,0.00,VWS V14.01,2013-01-20 23:53:00,
2013-01-20 18:58:00,29.8,15.2,30.14,WNW,292,3.0,8.0,54,0.00,,,0.00,VWS V14.01,2013-01-20 23:58:00,
2013-01-20 19:03:00,29.6,15.0,30.14,WNW,288,0.0,4.0,54,0.00,,,0.00,VWS V14.01,2013-01-21 00:03:00,
2013-01-20 19:08:00,29.5,14.9,30.14,WNW,299,4.0,6.0,54,0.00,,,0.00,VWS V14.01,2013-01-21 00:08:00,
2013-01-20 19:13:00,29.4,15.2,30.14,WNW,295,0.0,6.0,55,0.00,,,0.00,VWS V14.01,2013-01-21 00:13:00,
2013-01-20 19:19:00,29.3,15.1,30.14,WNW,296,0.0,6.0,55,0.00,,,0.00,VWS V14.01,2013-01-21 00:19:00,
2013-01-20 19:24:00,29.1,15.0,30.14,WNW,290,2.0,6.0,55,0.00,,,0.00,VWS V14.01,2013-01-21 00:24:00,
2013-01-20 19:29:00,29.0,14.4,30.15,WNW,296,3.0,6.0,54,0.00,,,0.00,VWS V14.01,2013-01-21 00:29:00,
2013-01-20 19:34:00,28.9,14.8,30.15,NW,305,3.0,4.0,55,0.00,,,0.00,VWS V14.01,2013-01-21 00:34:00,
2013-01-20 19:39:00,28.6,14.9,30.15,WNW,299,3.0,5.0,56,0.00,,,0.00,VWS V14.01,2013-01-21 00:39:00,
2013-01-20 19:44:00,28.5,14.8,30.15,WNW,298,0.0,6.0,56,0.00,,,0.00,VWS V14.01,2013-01-21 00:44:00,
2013-01-20 19:49:00,28.3,14.6,30.16,WNW,288,3.0,6.0,56,0.00,,,0.00,VWS V14.01,2013-01-21 00:49:00,
2013-01-20 19:54:00,28.2,14.5,30.16,WNW,296,2.0,6.0,56,0.00,,,0.00,VWS V14.01,2013-01-21 00:54:00,
2013-01-20 19:59:00,28.1,14.8,30.16,WNW,301,0.0,6.0,57,0.00,,,0.00,VWS V14.01,2013-01-21 00:59:00,
2013-01-20 20:04:00,27.9,14.6,30.16,WNW,301,0.0,3.0,57,0.00,,,0.00,VWS V14.01,2013-01-21 01:04:00,
2013-01-20 20:09:00,27.8,14.6,30.15,WNW,301,0.0,3.0,57,0.00,,,0.00,VWS V14.01,2013-01-21 01:09:00,
2013-01-20 20:14:00,27.7,14.5,30.15,WNW,301,0.0,3.0,57,0.00,,,0.00,VWS V14.01,2013-01-21 01:14:00,
2013-01-20 20:20:00,27.6,14.4,30.15,WNW,301,0.0,3.0,57,0.00,,,0.00,VWS V14.01,2013-01-21 01:20:00,
2013-01-20 20:25:00,27.4,14.2,30.15,WNW,301,0.0,3.0,57,0.00,,,0.00,VWS V14.01,2013-01-21 01:25:00,
2013-01-20 20:30:00,27.1,14.3,30.16,WNW,301,0.0,3.0,58,0.00,,,0.00,VWS V14.01,2013-01-21 01:30:00,
2013-01-20 20:35:00,26.9,14.5,30.16,WNW,301,4.0,4.0,59,0.00,,,0.00,VWS V14.01,2013-01-21 01:35:00,
2013-01-20 20:40:00,27.0,15.0,30.16,WNW,300,2.0,5.0,60,0.00,,,0.00,VWS V14.01,2013-01-21 01:40:00,
2013-01-20 20:45:00,27.0,14.6,30.16,WNW,294,3.0,9.0,59,0.00,,,0.00,VWS V14.01,2013-01-21 01:45:00,
2013-01-20 20:51:00,26.9,14.9,30.16,NNW,338,5.0,9.0,60,0.00,,,0.00,VWS V14.01,2013-01-21 01:51:00,
2013-01-20 20:56:00,27.0,15.0,30.16,NW,314,6.0,9.0,60,0.00,,,0.00,VWS V14.01,2013-01-21 01:56:00,
2013-01-20 21:01:00,26.9,14.9,30.17,WNW,288,4.0,7.0,60,0.00,,,0.00,VWS V14.01,2013-01-21 02:01:00,
2013-01-20 21:06:00,26.8,15.2,30.17,WNW,296,3.0,8.0,61,0.00,,,0.00,VWS V14.01,2013-01-21 02:06:00,
2013-01-20 21:11:00,26.7,15.1,30.17,WNW,302,5.0,9.0,61,0.00,,,0.00,VWS V14.01,2013-01-21 02:11:00,
2013-01-20 21:16:00,26.5,14.9,30.17,WNW,302,0.0,9.0,61,0.00,,,0.00,VWS V14.01,2013-01-21 02:16:00,
2013-01-20 21:21:00,26.5,14.9,30.17,NW,314,6.0,9.0,61,0.00,,,0.00,VWS V14.01,2013-01-21 02:21:00,
2013-01-20 21:27:00,26.4,14.8,30.17,WNW,302,1.0,9.0,61,0.00,,,0.00,VWS V14.01,2013-01-21 02:27:00,
2013-01-20 21:32:00,26.3,15.1,30.17,WNW,301,5.0,5.0,62,0.00,,,0.00,VWS V14.01,2013-01-21 02:32:00,
2013-01-20 21:37:00,26.1,14.9,30.17,WNW,293,2.0,5.0,62,0.00,,,0.00,VWS V14.01,2013-01-21 02:37:00,
2013-01-20 21:42:00,26.0,15.1,30.17,WNW,296,4.0,6.0,63,0.00,,,0.00,VWS V14.01,2013-01-21 02:42:00,
2013-01-20 21:47:00,26.0,14.8,30.17,NW,304,3.0,7.0,62,0.00,,,0.00,VWS V14.01,2013-01-21 02:47:00,
2013-01-20 21:52:00,26.0,14.8,30.16,WNW,294,3.0,7.0,62,0.00,,,0.00,VWS V14.01,2013-01-21 02:52:00,
2013-01-20 21:57:00,25.8,15.0,30.16,WNW,302,3.0,7.0,63,0.00,,,0.00,VWS V14.01,2013-01-21 02:57:00,
2013-01-20 22:02:00,25.9,14.7,30.16,West,270,0.0,6.0,62,0.00,,,0.00,VWS V14.01,2013-01-21 03:02:00,
2013-01-20 22:07:00,25.8,15.0,30.16,West,280,4.0,8.0,63,0.00,,,0.00,VWS V14.01,2013-01-21 03:07:00,
2013-01-20 22:12:00,25.9,15.1,30.17,West,265,2.0,8.0,63,0.00,,,0.00,VWS V14.01,2013-01-21 03:12:00,
2013-01-20 22:17:00,25.8,15.0,30.17,WNW,292,6.0,8.0,63,0.00,,,0.00,VWS V14.01,2013-01-21 03:17:00,
2013-01-20 22:23:00,25.8,15.0,30.17,WNW,301,6.0,8.0,63,0.00,,,0.00,VWS V14.01,2013-01-21 03:23:00,
2013-01-20 22:28:00,25.7,14.9,30.17,West,275,0.0,8.0,63,0.00,,,0.00,VWS V14.01,2013-01-21 03:28:00,
2013-01-20 22:33:00,25.7,14.9,30.17,WSW,246,0.0,4.0,63,0.00,,,0.00,VWS V14.01,2013-01-21 03:33:00,
2013-01-20 22:38:00,25.7,14.9,30.17,West,280,2.0,6.0,63,0.00,,,0.00,VWS V14.01,2013-01-21 03:38:00,
2013-01-20 22:43:00,25.6,14.8,30.17,WNW,284,3.0,6.0,63,0.00,,,0.00,VWS V14.01,2013-01-21 03:43:00,
2013-01-20 22:48:00,25.6,14.8,30.17,WNW,283,0.0,6.0,63,0.00,,,0.00,VWS V14.01,2013-01-21 03:48:00,
2013-01-20 22:53:00,25.5,15.0,30.17,WNW,289,0.0,6.0,64,0.00,,,0.00,VWS V14.01,2013-01-21 03:53:00,
2013-01-20 22:58:00,25.5,14.7,30.16,WNW,297,0.0,6.0,63,0.00,,,0.00,VWS V14.01,2013-01-21 03:58:00,
2013-01-20 23:03:00,25.5,14.7,30.16,WSW,253,0.0,0.0,63,0.00,,,0.00,VWS V14.01,2013-01-21 04:03:00,
2013-01-20 23:08:00,25.5,14.7,30.16,WNW,284,0.0,4.0,63,0.00,,,0.00,VWS V14.01,2013-01-21 04:08:00,
2013-01-20 23:13:00,25.5,15.0,30.17,WNW,287,0.0,4.0,64,0.00,,,0.00,VWS V14.01,2013-01-21 04:13:00,
2013-01-20 23:18:00,25.4,14.9,30.17,WNW,284,0.0,4.0,64,0.00,,,0.00,VWS V14.01,2013-01-21 04:18:00,
2013-01-20 23:23:00,25.4,14.9,30.16,WNW,284,1.0,4.0,64,0.00,,,0.00,VWS V14.01,2013-01-21 04:23:00,
2013-01-20 23:28:00,25.4,15.3,30.16,WNW,296,0.0,4.0,65,0.00,,,0.00,VWS V14.01,2013-01-21 04:28:00,
2013-01-20 23:33:00,25.3,14.8,30.16,West,276,0.0,1.0,64,0.00,,,0.00,VWS V14.01,2013-01-21 04:33:00,
2013-01-20 23:38:00,25.3,14.8,30.15,NW,307,0.0,3.0,64,0.00,,,0.00,VWS V14.01,2013-01-21 04:38:00,
2013-01-20 23:43:00,25.2,14.8,30.16,West,278,0.0,6.0,64,0.00,,,0.00,VWS V14.01,2013-01-21 04:43:00,
2013-01-20 23:49:00,25.2,15.1,30.15,WNW,298,3.0,6.0,65,0.00,,,0.00,VWS V14.01,2013-01-21 04:49:00,
2013-01-20 23:54:00,25.1,15.0,30.15,WNW,286,3.0,6.0,65,0.00,,,0.00,VWS V14.01,2013-01-21 04:54:00,
2013-01-20 23:59:00,25.1,15.0,30.15,WNW,286,0.0,6.0,65,0.00,,,0.00,VWS V14.01,2013-01-21 04:59:00,